Temperature
6 6 6 5 5 5 5 6 5 5 5 5 5 5 5 5 5 5 5 5 5 5 5 5 5 5 5 5 5 5 5 5 5 5 5 5 5 5 5 5 5 5 5
5 5 5 5 5 5 5 5 5 5 5 5 5 5 5 5 5 5 5 5 5 5 5 5 5 5 5 5 5 5 5 5 5 4 4 4 5 5 4 4 4 4 5
4 5 5 4 4 5 4 4 4 4 4 4 4 4 4 4 4 4 4 4 4 4 4 4 4 4 4 4 4 4 4 4 4 4 4 4 4 4 4 4 4 4 4
4 4 4 4 4 4 4 4 4 4 4 4 4 4 4 4 4 4 4 4 4 4 4 4 4 4 4 4 4 4 4 4 4 4 3 3 3 3 3 3 3 3 3
4 4 4 4 4 4 4 4 4 4 4 4 4 4 4 4 4 4 4 4 3 3 4 3 4 3 3 3 3 3 3 3 3 3 3 3 3 3 2 2 2 2 2
3 3 3 3 4 4 4 3 3 3 3 3 3 3 3 3 3 3 3 3 3 3 3 3 3 3 3 3 3 3 3 3 3 2 2 2 2 2 2 2 2 2 2
3 3 3 3 3 3 3 3 3 3 3 3 3 3 3 3 3 3 3 3 3 3 2 2 2 2 2 2 2 2 2 2 2 2 2 2 2 2 2 1 1 1 1
2 2 3 3 3 3 2 3 3 2 2 2 2 2 2 2 2 2 2 2 2 2 2 2 2 2 2 2 2 2 1 1 1 1 1 1 1 1 1 1 1 1 1
2 2 2 2 2 2 2 2 2 2 2 2 2 2 2 2 2 2 2 2 2 2 1 1 1 1 1 1 1 1 1 1 1 1 1 1 1 1 0 0 -0 -0 -0
2 2 2 2 2 2 1 1 1 1 1 1 1 1 1 1 1 1 1 1 1 1 1 1 1 1 1 1 1 1 1 1 1 0 0 0 0 0 -0 -0 -0 -1 -1
1 1 1 1 1 1 1 1 1 1 1 1 1 1 1 1 1 1 1 1 1 0 0 0 0 0 0 0 0 1 1 0 0 -0 -0 -0 -0 -1 -1 -1 -1 -1 -1
1 1 1 1 1 0 0 0 0 0 0 0 0 0 0 0 0 0 0 0 0 -0 -0 -0 -0 -0 0 0 -0 -0 -0 -0 -0 -1 -1 -1 -1 -1 -1 -1 -1 -1 -2
0 0 0 0 0 -0 -0 -0 -0 -0 -0 -0 -0 -0 -0 -0 -0 -0 -1 -1 -0 -0 -1 -1 -0 -0 -0 -0 -1 -1 -1 -1 -1 -1 -1 -1 -1 -1 -1 -2 -2 -2 -2
-0 -0 -0 -0 -0 -1 -1 -1 -1 -1 -1 -1 -1 -1 -1 -1 -1 -1 -1 -1 -1 -1 -1 -1 -1 -1 -1 -1 -1 -1 -2 -2 -2 -2 -2 -2 -2 -2 -2 -2 -2 -2 -3
-1 -1 -1 -1 -1 -1 -1 -1 -1 -1 -1 -1 -1 -1 -1 -1 -2 -2 -2 -2 -2 -2 -1 -2 -2 -2 -2 -2 -2 -2 -2 -2 -2 -2 -2 -2 -3 -3 -3 -3 -3 -3 -3
-1 -1 -1 -1 -1 -1 -2 -2 -2 -2 -2 -2 -2 -2 -2 -2 -2 -2 -2 -2 -2 -2 -2 -2 -2 -2 -2 -3 -3 -3 -3 -3 -3 -3 -3 -3 -3 -3 -3 -3 -4 -4 -4
-2 -2 -2 -2 -2 -2 -2 -2 -2 -2 -2 -2 -2 -2 -2 -2 -2 -2 -3 -3 -3 -3 -3 -3 -3 -3 -3 -3 -3 -3 -3 -3 -3 -4 -4 -4 -4 -4 -4 -4 -4 -4 -4
-3 -3 -3 -3 -3 -3 -3 -3 -3 -3 -3 -3 -3 -3 -3 -3 -3 -3 -3 -3 -3 -3 -4 -4 -4 -4 -4 -4 -4 -4 -4 -4 -4 -4 -4 -4 -4 -4 -4 -4 -5 -5 -5
-3 -3 -3 -3 -4 -4 -3 -3 -4 -4 -4 -4 -4 -4 -4 -4 -4 -4 -4 -4 -4 -4 -4 -4 -4 -4 -5 -5 -5 -5 -5 -5 -5 -5 -4 -5 -5 -5 -5 -5 -5 -5 -5
-4 -4 -4 -4 -4 -4 -4 -4 -4 -4 -4 -4 -4 -4 -4 -4 -4 -4 -4 -4 -5 -5 -5 -5 -5 -5 -5 -5 -5 -5 -5 -5 -5 -5 -5 -5 -5 -5 -5 -5 -5 -6 -6
-5 -5 -5 -5 -5 -5 -5 -5 -5 -5 -5 -5 -5 -5 -5 -5 -5 -5 -5 -5 -5 -6 -6 -6 -6 -6 -5 -5 -5 -5 -5 -5 -5 -6 -6 -6 -6 -6 -6 -6 -6 -6 -6
-5 -5 -5 -5 -5 -6 -6 -6 -6 -6 -6 -6 -6 -6 -6 -6 -6 -6 -6 -6 -6 -6 -6 -6 -6 -6 -6 -6 -6 -6 -6 -6 -6 -6 -6 -6 -6 -6 -6 -6 -7 -7 -7
-6 -6 -6 -6 -6 -6 -6 -6 -6 -6 -6 -6 -6 -6 -6 -6 -6 -6 -6 -6 -6 -6 -6 -6 -6 -6 -6 -6 -6 -6 -6 -6 -6 -6 -6 -6 -6 -6 -7 -7 -7 -7 -7
-6 -7 -7 -7 -7 -7 -7 -7 -7 -7 -7 -7 -7 -7 -7 -7 -7 -7 -7 -7 -7 -7 -7 -7 -7 -6 -6 -6 -6 -6 -6 -7 -7 -7 -7 -7 -7 -7 -7 -7 -7 -7 -7
-7 -7 -7 -7 -7 -7 -7 -7 -7 -7 -7 -7 -7 -7 -7 -7 -7 -7 -7 -7 -7 -7 -7 -7 -7 -7 -7 -7 -7 -7 -7 -7 -7 -7 -7 -7 -7 -7 -7 -8 -8 -8 -8
-8 -8 -8 -8 -8 -8 -8 -8 -8 -8 -8 -8 -8 -8 -8 -8 -8 -8 -8 -8 -8 -8 -8 -7 -7 -7 -7 -7 -7 -7 -7 -7 -7 -7 -7 -7 -7 -8 -8 -8 -8 -8 -8
Wind_Speed
1 1 1 1 1 1 2 2 3 3 3 4 4 4 4 4 4 4 5 5 6 5 5 5 5 4 3 3 3 3 2 2 2 2 1 1 2 2 3 5 6 6 7
1 1 2 2 1 1 2 2 2 3 3 3 3 4 4 4 4 5 5 5 6 6 5 5 5 4 4 4 3 3 3 2 3 3 2 1 2 2 3 3 4 5 6
1 2 2 2 2 2 2 2 2 2 3 3 4 4 4 4 4 4 5 5 5 5 5 5 5 5 5 3 4 3 3 2 2 3 2 1 1 1 1 2 2 2 4
2 2 2 2 2 2 2 2 2 3 3 3 4 4 4 4 4 4 4 4 4 4 4 4 5 6 6 5 4 4 3 3 3 3 2 2 1 1 1 2 2 2 3
2 2 2 2 2 2 2 2 2 2 3 3 3 3 3 3 4 4 4 4 4 3 3 3 3 5 6 5 5 5 5 4 4 4 3 2 2 2 3 2 2 2 3
2 2 1 1 2 2 2 2 3 2 2 2 3 3 3 2 3 4 3 3 3 3 3 2 2 3 5 5 5 5 6 6 5 4 4 4 4 4 3 3 2 2 3
2 2 2 2 2 2 2 2 3 3 3 2 2 3 3 3 4 4 3 3 3 4 4 3 2 3 3 3 3 3 3 5 6 5 5 5 4 5 4 4 3 3 4
2 2 2 2 2 2 2 2 2 2 2 2 2 2 2 2 3 3 2 2 3 3 3 3 3 3 3 4 3 2 2 2 3 3 4 3 3 4 4 4 4 2 1
2 2 2 2 2 2 2 2 2 2 2 2 2 2 2 2 2 2 2 2 2 2 2 2 3 3 4 4 4 3 2 1 1 3 3 2 2 3 4 2 2 1 2
2 2 1 1 2 2 2 2 2 2 2 2 2 2 2 2 3 2 2 2 2 1 1 1 2 3 4 4 3 4 3 2 2 1 1 0 1 1 2 3 4 3 2
0 1 1 1 1 1 2 2 2 2 2 2 2 2 2 2 3 3 3 2 2 2 1 1 1 2 3 3 3 3 4 3 2 2 1 1 1 1 1 1 3 3 3
1 1 1 2 2 2 2 2 2 3 3 2 2 2 2 2 2 3 3 2 2 1 1 0 1 1 1 2 2 3 3 2 2 2 1 1 1 1 1 1 2 1 2
2 2 2 3 2 3 3 3 2 2 2 2 2 2 2 2 2 3 2 2 2 2 1 1 1 1 1 0 1 2 2 2 2 2 2 2 1 2 2 1 1 2 2
2 2 2 3 3 2 2 2 2 2 2 2 2 2 1 2 2 2 1 2 2 2 2 2 2 2 2 1 1 0 1 1 2 2 2 1 1 1 1 1 1 1 0
2 2 2 2 3 3 3 2 2 2 2 2 1 1 1 1 0 1 1 1 1 1 1 2 2 2 2 1 1 1 1 1 0 1 1 1 1 1 1 1 1 1 1
2 2 2 2 3 3 3 3 5 3 4 4 3 2 2 1 1 1 2 2 2 2 2 1 1 1 0 0 1 1 0 0 1 1 1 2 2 2 1 1 1 1 2
3 2 2 2 3 3 3 3 3 4 5 5 5 4 4 3 3 3 3 2 2 2 2 1 1 0 0 0 0 0 0 1 1 1 1 2 2 2 2 2 2 2 2
3 3 3 3 3 3 3 3 3 3 3 3 4 4 4 4 4 4 4 3 3 3 2 1 1 1 0 0 0 0 0 0 0 0 1 1 2 2 2 2 2 2 2
3 3 3 3 3 3 3 3 3 3 3 2 3 3 4 4 5 5 5 3 2 2 2 2 1 1 1 1 1 1 0 0 0 1 1 1 2 2 2 2 2 3 2
4 5 4 3 3 3 3 3 3 3 3 2 2 2 3 3 3 3 3 3 2 2 2 2 2 1 1 1 1 1 0 1 1 1 1 1 1 2 2 2 2 2 2
3 4 5 4 3 3 3 3 2 2 2 2 2 3 4 2 2 2 2 2 2 2 2 2 2 2 2 1 1 1 1 1 1 1 2 2 1 1 2 2 2 2 2
3 3 3 3 3 3 2 2 2 2 2 2 2 3 5 3 2 2 2 2 2 2 2 2 2 2 1 1 1 1 1 2 2 2 2 2 2 2 2 2 2 2 2
3 3 3 3 3 3 3 2 2 2 2 2 2 2 2 2 2 2 2 2 2 2 3 2 2 2 2 2 2 1 2 2 2 2 2 2 2 2 2 3 3 3 3
3 3 2 2 2 2 2 2 2 2 2 2 2 2 2 2 2 2 2 2 2 3 3 3 2 3 4 3 3 3 3 4 4 3 3 3 3 2 3 3 3 4 4
3 3 2 2 2 2 2 2 2 2 2 2 2 2 2 2 2 2 2 2 2 3 3 3 3 4 4 4 4 4 5 6 6 4 3 3 3 3 3 3 3 3 3
3 3 2 2 2 2 1 1 2 2 2 2 2 2 2 2 2 2 2 2 3 3 3 3 4 5 6 6 6 6 6 7 6 5 3 3 3 3 3 3 3 3 3
Wind_Direction
210 201 206 221 215 203 199 202 196 191 183 187 197 204 208 201 195 196 195 187 194 203 205 203 214 209 202 191 180 193 204 184 212 263 282 210 192 203 212 211 215 217 225
213 206 201 202 199 203 211 207 191 187 190 192 194 199 206 204 200 198 198 192 193 199 204 204 210 203 198 188 182 196 200 188 189 220 250 233 230 216 215 221 224 228 229
203 200 205 194 195 209 211 203 187 189 198 205 200 202 206 205 205 203 199 198 199 203 201 205 208 194 202 194 187 192 193 187 178 194 226 234 243 239 238 255 241 244 245
212 203 207 204 200 204 208 204 195 194 201 207 207 206 206 207 208 202 197 196 199 207 206 207 207 201 200 193 195 193 186 184 177 183 208 225 226 237 207 234 258 255 256
215 218 214 199 197 200 202 198 193 196 208 203 203 205 206 207 207 198 191 190 193 195 198 210 208 201 203 203 201 193 187 192 190 197 212 226 223 210 219 219 234 256 269
212 225 221 201 204 204 208 204 196 194 201 191 196 198 198 208 207 204 197 188 188 191 200 206 197 195 197 202 203 203 200 199 200 207 222 220 228 223 218 213 207 229 263
218 219 209 211 212 209 207 206 201 198 194 190 192 186 191 193 186 191 195 193 193 195 196 195 207 203 191 182 182 196 217 229 223 215 216 224 225 216 202 213 216 231 244
218 217 207 202 207 192 182 200 201 185 180 177 177 174 165 168 170 172 176 175 183 193 192 188 190 198 192 176 164 170 201 238 236 224 213 226 227 208 200 209 218 231 285
214 215 206 199 192 175 178 185 185 169 163 157 157 146 141 145 145 139 153 154 149 161 174 176 183 188 188 175 166 170 182 234 229 187 189 205 216 212 195 170 176 209 269
220 208 183 179 175 174 171 161 148 142 144 133 124 121 129 129 122 114 117 141 136 137 129 149 177 183 182 176 181 180 193 209 179 150 163 210 157 178 200 189 188 205 240
222 118 132 140 142 133 127 126 124 122 114 112 107 97 108 116 122 118 105 122 141 150 168 191 198 190 189 194 199 200 207 195 168 156 154 156 155 156 156 168 182 195 213
86 107 122 121 110 99 100 100 110 119 115 110 105 92 82 90 99 113 104 89 85 118 156 156 173 197 217 222 216 198 192 171 144 143 155 180 184 189 182 164 168 165 187
113 115 112 109 106 106 108 107 109 117 124 119 110 100 77 65 69 78 89 83 64 53 66 81 84 56 7 225 191 198 195 165 157 167 190 213 204 185 162 141 111 99 69
108 113 113 111 104 100 98 99 106 110 117 115 112 108 90 70 60 62 73 87 80 69 71 77 68 63 46 69 90 102 121 162 177 192 191 190 149 137 171 179 183 151 63
85 85 93 102 114 109 97 93 103 96 116 119 123 129 132 124 70 38 44 63 85 116 87 62 55 54 49 57 72 84 90 101 156 190 173 173 174 181 234 202 179 183 218
86 81 85 91 98 103 100 75 61 74 64 61 66 75 63 75 79 69 60 63 65 87 70 89 82 88 94 99 110 79 77 184 205 192 187 191 200 206 213 190 176 191 207
77 75 82 89 93 96 101 99 79 55 54 51 53 59 65 66 67 70 72 70 62 61 60 85 67 46 26 43 90 97 274 247 205 187 195 205 203 206 205 203 199 208 213
64 65 67 72 78 81 84 86 91 88 67 43 40 53 55 58 62 63 63 56 53 47 56 58 44 33 21 329 305 314 302 192 202 207 219 219 205 202 203 206 208 209 212
59 65 64 67 70 72 73 76 75 70 68 56 42 38 37 48 55 50 43 52 50 35 29 22 15 9 350 333 330 318 295 263 261 255 246 230 217 210 215 214 212 216 219
59 58 57 60 63 64 65 68 67 64 57 48 38 24 19 33 46 34 34 36 31 21 15 11 4 357 342 328 320 313 294 287 276 273 267 249 230 219 218 213 209 214 219
54 55 52 59 63 62 61 62 62 60 54 43 28 18 21 37 38 28 21 19 15 3 354 352 346 340 334 325 315 295 273 280 280 277 275 263 239 231 226 220 217 217 220
53 53 51 59 60 58 57 55 58 55 46 39 23 16 19 27 25 17 9 6 7 2 354 342 329 319 316 310 299 286 273 272 267 261 260 253 235 223 218 219 216 218 216
47 48 43 42 47 47 44 42 43 41 32 19 12 12 13 13 12 12 9 4 3 2 6 3 340 333 344 335 313 281 267 270 267 263 256 249 233 220 216 221 220 221 224
40 44 42 39 39 37 34 29 25 21 17 9 4 1 358 0 2 2 1 0 1 1 1 360 350 333 329 326 314 293 278 274 273 262 249 241 236 229 224 225 225 225 226
36 37 35 33 25 22 23 22 15 12 6 358 354 353 352 351 349 349 347 345 346 343 341 342 336 331 323 314 305 296 290 286 282 269 246 229 228 228 223 225 225 222 221
29 25 18 16 14 9 9 7 2 3 357 349 345 342 337 332 329 331 334 338 334 328 325 326 319 318 318 314 305 299 296 293 287 277 258 230 223 228 220 221 213 211 210
Height
1456 1456 1457 1458 1459 1460 1460 1461 1462 1463 1464 1465 1467 1468 1469 1470 1472 1473 1475 1476 1478 1479 1481 1483 1485 1486 1488 1489 1491 1493 1495 1496 1496 1497 1499 1500 1501 1501 1502 1503 1504 1504 1505
1454 1454 1454 1455 1456 1456 1457 1458 1459 1460 1461 1462 1463 1464 1465 1466 1468 1469 1471 1472 1473 1475 1476 1478 1480 1481 1483 1484 1486 1488 1490 1491 1492 1492 1494 1495 1496 1497 1498 1498 1499 1500 1500
1451 1451 1451 1452 1452 1453 1454 1455 1456 1457 1457 1458 1459 1460 1461 1462 1464 1465 1467 1468 1469 1471 1472 1473 1475 1476 1478 1479 1481 1483 1485 1486 1488 1489 1489 1491 1491 1492 1493 1494 1494 1495 1495
1448 1448 1448 1449 1449 1450 1451 1451 1452 1453 1454 1455 1456 1457 1458 1459 1460 1461 1463 1464 1465 1467 1468 1469 1470 1472 1473 1475 1477 1478 1480 1482 1483 1484 1485 1486 1487 1488 1488 1489 1489 1490 1490
1445 1445 1445 1446 1446 1447 1447 1448 1449 1450 1451 1451 1452 1453 1454 1455 1456 1458 1459 1460 1461 1463 1464 1465 1466 1468 1469 1471 1473 1474 1476 1477 1478 1479 1480 1481 1482 1483 1484 1484 1484 1485 1485
1441 1441 1442 1443 1443 1444 1444 1445 1445 1446 1447 1448 1448 1449 1451 1452 1453 1454 1455 1456 1457 1458 1459 1461 1462 1464 1465 1467 1468 1470 1472 1473 1474 1474 1475 1476 1477 1478 1479 1480 1480 1480 1480
1438 1438 1439 1440 1440 1441 1441 1441 1442 1442 1443 1444 1445 1446 1447 1448 1450 1451 1452 1453 1453 1454 1456 1457 1458 1460 1462 1463 1464 1465 1467 1468 1470 1471 1471 1471 1473 1474 1475 1475 1475 1476 1475
1435 1435 1436 1436 1437 1437 1438 1438 1438 1439 1440 1441 1442 1443 1444 1445 1446 1447 1448 1449 1450 1451 1452 1454 1455 1456 1458 1459 1460 1461 1462 1464 1465 1466 1467 1467 1469 1470 1470 1471 1471 1471 1471
1432 1432 1432 1433 1433 1434 1435 1435 1436 1437 1437 1438 1440 1440 1441 1442 1444 1444 1445 1446 1446 1448 1449 1451 1452 1453 1454 1456 1457 1458 1458 1459 1461 1461 1462 1463 1464 1465 1466 1467 1467 1467 1466
1429 1429 1430 1430 1431 1431 1432 1433 1434 1435 1436 1436 1437 1438 1439 1440 1441 1442 1443 1443 1444 1445 1446 1447 1449 1450 1451 1452 1453 1454 1454 1455 1457 1457 1458 1459 1460 1461 1462 1462 1463 1463 1462
1427 1427 1427 1428 1429 1430 1430 1431 1432 1433 1434 1434 1435 1436 1437 1438 1438 1439 1440 1441 1441 1442 1443 1444 1446 1447 1448 1449 1450 1451 1452 1453 1453 1454 1454 1455 1456 1457 1457 1458 1459 1459 1459
1425 1425 1425 1426 1427 1428 1428 1429 1430 1431 1432 1432 1433 1434 1435 1436 1437 1437 1438 1439 1440 1440 1441 1442 1443 1444 1445 1446 1447 1448 1449 1450 1450 1450 1451 1451 1452 1453 1453 1454 1454 1454 1455
1423 1423 1424 1424 1425 1426 1427 1428 1428 1429 1430 1431 1431 1432 1433 1434 1435 1436 1436 1437 1438 1438 1439 1440 1440 1441 1442 1443 1444 1445 1446 1446 1446 1447 1447 1448 1449 1449 1449 1450 1450 1450 1450
1421 1421 1422 1422 1423 1424 1425 1426 1427 1428 1428 1429 1430 1431 1431 1432 1432 1433 1434 1435 1435 1436 1436 1437 1438 1438 1439 1440 1441 1441 1442 1443 1443 1444 1444 1444 1445 1445 1446 1446 1446 1446 1446
1420 1420 1421 1421 1422 1422 1424 1425 1426 1427 1428 1428 1429 1429 1429 1430 1431 1432 1432 1433 1433 1434 1434 1434 1435 1436 1436 1437 1437 1438 1439 1439 1440 1440 1441 1441 1441 1442 1442 1442 1443 1442 1442
1419 1419 1419 1420 1420 1421 1422 1423 1425 1426 1427 1427 1428 1428 1428 1429 1430 1430 1431 1431 1431 1432 1432 1432 1433 1433 1434 1434 1434 1435 1435 1436 1436 1437 1437 1437 1437 1438 1438 1439 1439 1439 1439
1418 1418 1418 1419 1419 1420 1421 1422 1423 1425 1426 1426 1427 1427 1427 1428 1428 1428 1429 1429 1430 1430 1430 1430 1431 1431 1432 1432 1432 1432 1433 1433 1433 1434 1434 1434 1434 1435 1435 1435 1435 1435 1435
1417 1417 1418 1418 1419 1420 1421 1422 1422 1423 1424 1425 1426 1426 1426 1427 1427 1427 1427 1427 1428 1428 1429 1429 1429 1430 1430 1430 1430 1430 1430 1430 1430 1430 1431 1431 1431 1431 1432 1432 1432 1432 1432
1417 1417 1417 1418 1419 1420 1420 1421 1422 1423 1423 1424 1425 1425 1426 1426 1426 1426 1426 1426 1426 1427 1427 1427 1428 1428 1428 1428 1428 1428 1428 1427 1427 1427 1427 1428 1428 1428 1428 1429 1429 1429 1429
1417 1417 1417 1418 1419 1420 1420 1421 1421 1422 1423 1423 1424 1424 1425 1425 1424 1424 1425 1425 1425 1425 1426 1426 1426 1426 1426 1426 1425 1425 1425 1425 1425 1425 1425 1425 1425 1425 1425 1425 1426 1426 1426
1416 1417 1418 1418 1419 1420 1420 1421 1421 1422 1422 1423 1423 1424 1424 1424 1424 1424 1424 1424 1424 1424 1424 1424 1424 1423 1423 1423 1423 1422 1422 1422 1422 1422 1422 1422 1422 1422 1422 1423 1423 1423 1423
1417 1418 1418 1419 1419 1420 1420 1421 1421 1422 1422 1422 1423 1423 1423 1423 1423 1422 1422 1423 1423 1423 1422 1422 1421 1421 1421 1421 1420 1420 1420 1419 1419 1419 1419 1419 1419 1419 1419 1420 1420 1420 1420
1418 1418 1418 1419 1419 1420 1420 1421 1421 1421 1421 1422 1422 1422 1422 1422 1421 1421 1421 1421 1421 1421 1420 1420 1419 1419 1419 1418 1418 1417 1417 1417 1416 1416 1416 1416 1416 1416 1416 1416 1417 1417 1417
1418 1418 1419 1419 1419 1420 1420 1420 1420 1421 1421 1421 1421 1421 1421 1420 1420 1420 1420 1419 1419 1419 1418 1418 1417 1417 1416 1415 1415 1414 1414 1413 1413 1413 1413 1413 1412 1413 1413 1413 1413 1413 1413
1418 1418 1418 1419 1419 1419 1419 1420 1420 1420 1420 1420 1420 1419 1419 1419 1419 1418 1418 1418 1417 1417 1416 1415 1415 1414 1413 1412 1412 1411 1411 1410 1410 1409 1409 1409 1409 1409 1409 1409 1410 1410 1410
1418 1418 1418 1418 1418 1418 1418 1418 1419 1419 1418 1418 1418 1418 1417 1417 1417 1416 1416 1415 1415 1414 1413 1412 1412 1411 1410 1409 1409 1408 1407 1407 1406 1406 1406 1405 1405 1406 1406 1406 1406 1407 1407